$Date,$Time,DM0201B,DM0203B,DM0205B,DM0207B,DM0209B
09/05/98,00:00:01,104,304,-28,95,959
09/05/98,00:05:01,100,304,-28,95,959
09/05/98,00:10:01,101,304,-28,95,959
09/05/98,00:15:01,101,304,-28,101,959
09/05/98,00:20:01,101,304,-28,109,959
09/05/98,00:25:01,91,304,-28,113,959
09/05/98,00:30:01,101,304,-28,119,959
09/05/98,00:35:01,101,304,-28,125,959
09/05/98,00:40:01,101,304,-28,129,959
09/05/98,00:45:01,101,294,-28,131,959
09/05/98,00:50:01,107,294,-28,131,959
09/05/98,00:55:01,105,294,-28,133,959
09/05/98,01:00:01,62,294,-28,133,959
09/05/98,01:05:01,112,301,-28,133,959
09/05/98,01:10:01,108,303,-27,133,959
09/05/98,01:15:01,107,293,-27,133,959
09/05/98,01:20:01,113,293,-27,131,959
09/05/98,01:25:01,91,291,-27,132,959
09/05/98,01:30:01,79,291,-27,132,959
09/05/98,01:35:01,106,291,-27,132,959
09/05/98,01:40:01,118,295,-27,132,959
09/05/98,01:45:01,104,295,-27,132,959
09/05/98,01:50:01,126,295,-27,132,959
09/05/98,01:55:01,126,295,-27,130,959
09/05/98,02:00:01,126,295,-27,130,959
09/05/98,02:05:01,93,295,-27,128,959
09/05/98,02:10:01,120,295,-26,128,959
09/05/98,02:15:01,117,295,-26,126,959
09/05/98,02:20:01,113,295,-26,126,959
09/05/98,02:25:01,133,295,-26,124,959
09/05/98,02:30:01,107,295,-25,122,959
09/05/98,02:35:01,98,305,-25,120,959
09/05/98,02:40:01,118,295,-25,118,957
09/05/98,02:45:01,120,295,-25,116,957
09/05/98,02:50:01,114,295,-25,114,957
09/05/98,02:55:01,119,295,-25,112,957
09/05/98,03:00:01,119,295,-25,108,957
09/05/98,03:05:01,119,295,-25,106,957
09/05/98,03:10:01,119,295,-25,104,957
09/05/98,03:15:01,104,295,-25,100,957
09/05/98,03:20:01,112,295,-25,98,957
09/05/98,03:25:01,110,295,-25,94,957
09/05/98,03:30:01,108,295,-25,92,957
09/05/98,03:35:01,108,295,-25,88,957
09/05/98,03:40:01,108,295,-25,84,957
09/05/98,03:45:01,107,295,-25,82,957
09/05/98,03:50:01,113,295,-25,78,957
09/05/98,03:55:01,117,295,-25,74,957
09/05/98,04:00:01,100,295,-25,68,957
09/05/98,04:05:01,96,295,-25,60,957
09/05/98,04:10:01,107,295,-25,52,957
09/05/98,04:15:01,103,295,-25,42,957
09/05/98,04:20:01,103,295,-26,36,957
09/05/98,04:25:01,103,295,-26,30,957
09/05/98,04:30:01,103,295,-26,28,957
09/05/98,04:35:01,103,295,-26,20,957
09/05/98,04:40:01,103,295,-26,10,957
09/05/98,04:45:01,114,295,-27,6,957
09/05/98,04:50:01,117,295,-27,6,957
09/05/98,04:55:01,112,295,-27,6,957
09/05/98,05:00:01,125,295,-27,4,957
09/05/98,05:05:01,116,295,-27,4,957
09/05/98,05:10:01,103,295,-27,4,957
09/05/98,05:15:01,117,295,-27,2,957
09/05/98,05:20:01,117,295,-27,2,957
09/05/98,05:25:01,120,295,-27,2,957
09/05/98,05:30:01,128,295,-27,0,957
09/05/98,05:35:01,116,295,-27,0,957
09/05/98,05:40:01,117,295,-27,0,957
09/05/98,05:45:01,117,295,-27,0,957
09/05/98,05:50:01,117,295,-27,0,957
09/05/98,05:55:01,112,295,-27,0,957
09/05/98,06:00:01,120,295,-27,0,957
09/05/98,06:05:01,119,295,-27,0,957
09/05/98,06:10:01,112,285,-27,0,957
09/05/98,06:15:01,112,297,-27,0,957
09/05/98,06:20:01,88,297,-27,0,957
09/05/98,06:25:01,89,296,-27,0,957
09/05/98,06:30:01,67,286,-27,0,957
09/05/98,06:35:01,88,286,-27,0,957
09/05/98,06:40:01,95,298,-27,0,957
09/05/98,06:45:01,83,289,-27,0,957
09/05/98,06:50:01,63,299,-27,0,957
09/05/98,06:55:01,69,300,-27,0,957
09/05/98,07:00:01,65,300,-27,0,957
09/05/98,07:05:01,75,300,-27,0,955
09/05/98,07:10:01,66,300,-27,0,955
09/05/98,07:15:01,79,296,-27,0,955
09/05/98,07:20:01,60,288,-27,0,955
09/05/98,07:25:01,61,299,-27,0,955
09/05/98,07:30:01,59,299,-27,0,955
09/05/98,07:35:01,70,299,-27,0,955
09/05/98,07:40:01,60,297,-27,0,955
09/05/98,07:45:01,41,294,-27,0,955
09/05/98,07:50:01,38,307,-27,0,955
09/05/98,07:55:01,61,304,-27,0,955
09/05/98,08:00:01,52,304,-27,0,955
09/05/98,08:05:01,74,304,-27,0,955
09/05/98,08:10:01,75,304,-27,0,955
09/05/98,08:15:01,75,314,-27,0,955
09/05/98,08:20:01,65,314,-27,0,955
09/05/98,08:25:01,74,314,-28,0,955
09/05/98,08:30:01,68,324,-28,0,955
09/05/98,08:35:01,75,324,-28,0,955
09/05/98,08:40:01,63,328,-28,0,955
09/05/98,08:45:01,84,318,-28,0,955
09/05/98,08:50:01,52,314,-28,0,955
09/05/98,08:55:01,61,326,-28,0,955
09/05/98,09:00:01,62,326,-28,0,955
09/05/98,09:05:01,83,307,-28,0,955
09/05/98,09:10:01,63,316,-28,0,955
09/05/98,09:15:01,59,303,-28,0,955
09/05/98,09:20:01,68,308,-28,0,955
09/05/98,09:25:01,67,309,-27,0,955
09/05/98,09:30:01,90,311,-27,0,955
09/05/98,09:35:01,62,299,-27,0,955
09/05/98,09:40:01,56,303,-27,0,955
09/05/98,09:45:01,43,303,-27,0,955
09/05/98,09:50:01,53,306,-27,0,955
09/05/98,09:55:01,52,296,-28,0,955
09/05/98,10:00:01,64,296,-27,0,955
09/05/98,10:05:01,42,296,-27,0,955
09/05/98,10:10:01,36,296,-27,0,955
09/05/98,10:15:01,50,284,-27,0,955
09/05/98,10:20:01,29,280,-27,0,955
09/05/98,10:25:01,28,292,-27,0,955
09/05/98,10:30:01,63,285,-27,0,955
09/05/98,10:35:01,42,275,-27,0,955
09/05/98,10:40:01,41,275,-27,0,955
09/05/98,10:45:01,39,275,-28,0,955
09/05/98,10:50:01,39,275,-28,0,955
09/05/98,10:55:01,39,275,-28,0,955
09/05/98,11:00:01,34,275,-28,0,955
09/05/98,11:05:01,34,285,-28,0,955
09/05/98,11:10:01,34,285,-28,0,955
09/05/98,11:15:01,35,274,-28,0,955
09/05/98,11:20:01,35,274,-28,0,955
09/05/98,11:25:01,35,274,-28,0,955
09/05/98,11:30:01,35,274,-28,0,955
09/05/98,11:35:01,35,274,-28,0,955
09/05/98,11:40:01,35,274,-27,0,955
09/05/98,11:45:01,35,274,-27,0,955
09/05/98,11:50:01,25,284,-28,0,955
09/05/98,11:55:01,35,304,-28,0,955
09/05/98,12:00:01,35,304,-28,0,955
09/05/98,12:05:01,35,314,-28,0,955
09/05/98,12:10:01,35,346,-28,0,955
09/05/98,12:15:01,59,356,-29,0,955
09/05/98,12:20:01,60,356,-29,0,955
09/05/98,12:25:01,37,356,-29,0,955
09/05/98,12:30:01,33,1,-29,0,955
09/05/98,12:35:01,42,3,-29,0,955
09/05/98,12:40:01,32,344,-29,0,955
09/05/98,12:45:01,32,356,-29,0,955
09/05/98,12:50:01,32,1,-29,0,955
09/05/98,12:55:01,32,1,-29,0,955
09/05/98,13:00:01,22,327,-29,0,955
09/05/98,13:05:01,22,327,-29,0,955
09/05/98,13:10:01,22,327,-29,0,955
09/05/98,13:15:01,22,337,-29,0,955
09/05/98,13:20:01,22,325,-29,0,955
09/05/98,13:25:01,24,325,-29,0,955
09/05/98,13:30:01,23,325,-29,0,955
09/05/98,13:35:01,33,335,-29,0,955
09/05/98,13:40:01,33,345,-29,0,955
09/05/98,13:45:01,34,345,-29,0,955
09/05/98,13:50:01,34,345,-29,0,955
09/05/98,13:55:01,34,345,-29,0,955
09/05/98,14:00:01,34,345,-29,0,955
09/05/98,14:05:01,34,345,-29,0,955
09/05/98,14:10:01,34,345,-29,0,955
09/05/98,14:15:01,24,345,-29,0,955
09/05/98,14:20:01,24,345,-29,0,955
09/05/98,14:25:01,24,345,-29,0,955
09/05/98,14:30:01,34,345,-28,0,955
09/05/98,14:35:01,34,345,-28,0,955
09/05/98,14:40:01,34,335,-28,0,955
09/05/98,14:45:01,34,335,-28,0,955
09/05/98,14:50:01,34,335,-28,0,955
09/05/98,14:55:01,34,335,-28,0,955
09/05/98,15:00:01,34,325,-28,0,955
09/05/98,15:05:01,34,325,-28,0,955
09/05/98,15:10:01,34,325,-28,0,955
09/05/98,15:15:01,23,325,-28,0,955
09/05/98,15:20:01,13,325,-28,0,955
09/05/98,15:25:01,2,325,-28,0,955
09/05/98,15:30:01,14,325,-28,0,955
09/05/98,15:35:01,14,325,-28,0,955
09/05/98,15:40:01,34,325,-28,0,955
09/05/98,15:45:01,24,325,-28,0,955
09/05/98,15:50:01,34,325,-28,0,955
09/05/98,15:55:01,34,325,-28,0,955
09/05/98,16:00:01,44,325,-28,0,955
09/05/98,16:05:01,32,325,-28,0,955
09/05/98,16:10:01,32,325,-28,0,955
09/05/98,16:15:01,22,325,-28,0,955
09/05/98,16:20:01,22,325,-28,0,955
09/05/98,16:25:01,32,325,-28,0,955
09/05/98,16:30:01,32,325,-28,0,953
09/05/98,16:35:01,32,325,-28,0,953
09/05/98,16:40:01,32,325,-28,0,953
09/05/98,16:45:01,32,325,-28,0,953
09/05/98,16:50:01,32,325,-28,0,953
09/05/98,16:55:01,32,315,-28,0,953
09/05/98,17:00:01,32,305,-28,0,953
09/05/98,17:05:01,32,305,-28,0,953
09/05/98,17:10:01,32,305,-28,0,953
09/05/98,17:15:01,32,305,-28,0,953
09/05/98,17:20:01,32,305,-28,0,953
09/05/98,17:25:01,32,305,-28,0,953
09/05/98,17:30:01,44,305,-28,0,953
09/05/98,17:35:01,44,305,-28,0,953
09/05/98,17:40:01,44,318,-28,0,953
09/05/98,17:45:01,54,330,-28,0,953
09/05/98,17:50:01,44,330,-29,0,953
09/05/98,17:55:01,44,330,-29,0,953
09/05/98,18:00:01,54,320,-29,0,953
09/05/98,18:05:01,67,320,-29,0,953
09/05/98,18:10:01,67,320,-29,0,953
09/05/98,18:15:01,67,320,-29,0,953
09/05/98,18:20:01,55,320,-29,0,953
09/05/98,18:25:01,44,320,-28,0,953
09/05/98,18:30:01,44,320,-28,0,953
09/05/98,18:35:01,44,320,-28,0,953
09/05/98,18:40:01,71,320,-28,0,953
09/05/98,18:45:01,81,320,-28,0,953
09/05/98,18:50:01,81,320,-28,0,953
09/05/98,18:55:01,83,320,-28,0,953
09/05/98,19:00:01,77,320,-28,0,953
09/05/98,19:05:01,77,320,-28,0,953
09/05/98,19:10:01,67,310,-28,0,953
09/05/98,19:15:01,87,310,-28,0,953
09/05/98,19:20:01,64,310,-28,0,953
09/05/98,19:25:01,54,310,-28,0,953
09/05/98,19:30:01,33,310,-28,0,953
09/05/98,19:35:01,55,310,-28,0,953
09/05/98,19:40:01,65,321,-28,0,953
09/05/98,19:45:01,65,321,-28,0,953
09/05/98,19:50:01,65,321,-28,0,953
09/05/98,19:55:01,55,321,-28,0,953
09/05/98,20:00:01,54,321,-28,0,953
09/05/98,20:05:01,54,321,-28,0,953
09/05/98,20:10:01,54,321,-28,0,953
09/05/98,20:15:01,54,321,-28,0,953
09/05/98,20:20:01,36,321,-28,0,953
09/05/98,20:25:01,44,321,-28,0,953
09/05/98,20:30:01,54,321,-28,0,953
09/05/98,20:35:01,65,321,-28,2,953
09/05/98,20:40:01,65,321,-28,2,953
09/05/98,20:45:01,77,321,-28,6,953
09/05/98,20:50:01,87,311,-28,14,953
09/05/98,20:55:01,72,323,-28,20,953
09/05/98,21:00:01,97,321,-28,22,953
09/05/98,21:05:01,76,311,-28,28,953
09/05/98,21:10:01,85,311,-28,32,953
09/05/98,21:15:01,85,311,-28,38,953
09/05/98,21:20:01,77,311,-28,42,953
09/05/98,21:25:01,77,311,-28,46,953
09/05/98,21:30:01,54,311,-28,48,953
09/05/98,21:35:01,54,311,-28,54,953
09/05/98,21:40:01,54,311,-28,56,953
09/05/98,21:45:01,54,321,-28,60,953
09/05/98,21:50:01,54,333,-28,66,953
09/05/98,21:55:01,54,321,-28,68,953
09/05/98,22:00:01,55,321,-28,72,953
09/05/98,22:05:01,55,321,-28,76,953
09/05/98,22:10:01,55,321,-28,80,953
09/05/98,22:15:01,55,310,-28,84,953
09/05/98,22:20:01,45,310,-28,86,953
09/05/98,22:25:01,45,310,-28,90,953
09/05/98,22:30:01,44,320,-28,94,953
09/05/98,22:35:01,34,320,-28,98,953
09/05/98,22:40:01,50,320,-28,100,953
09/05/98,22:45:01,47,320,-28,104,953
09/05/98,22:50:01,36,320,-28,106,953
09/05/98,22:55:01,36,320,-28,110,953
09/05/98,23:00:01,36,320,-28,112,953
09/05/98,23:05:01,46,320,-28,114,953
09/05/98,23:10:01,36,320,-28,116,953
09/05/98,23:15:01,36,320,-28,118,953
09/05/98,23:20:01,36,320,-28,120,953
09/05/98,23:25:01,24,342,-28,122,953
09/05/98,23:30:01,24,11,-28,122,953
09/05/98,23:35:01,51,32,-28,124,953
09/05/98,23:40:01,51,32,-28,126,953
09/05/98,23:45:01,40,32,-28,128,953
09/05/98,23:50:01,40,32,-28,130,953
09/05/98,23:55:01,39,32,-28,130,953
09/06/98,00:00:01,39,32,-28,132,953
